Biggs Army Air Field / Ft. Bl, TX

1:55 AM MST on November 21, 2017 (GMT -0700)
Biggs Army Air Field

Weather History for KBIF - January, 2014

Change the Weather History Date:

Monday, January 20, 2014

  Actual Average (KELP) Record (KELP)
Temperature  
Mean Temperature 48 °F -  
Max Temperature 69 °F 58 °F 73 °F (1971)
Min Temperature 26 °F 34 °F 16 °F (1918)
Degree Days  
Heating Degree Days 18    
Moisture  
Dew Point 9 °F    
Average Humidity 24    
Maximum Humidity 45    
Minimum Humidity 10    
Precipitation  
Precipitation 0.00 in - - ()
Sea Level Pressure  
Sea Level Pressure 30.19 in    
Wind  
Wind Speed 4 mph (NNE)    
Max Wind Speed 7 mph    
Max Gust Speed -    
Visibility 11 miles    
Events      
Averages and records for this station are not official NWS values.
T = Trace of Precipitation, MM = Missing Value Source: NWS Daily Summary

Daily Weather History Graph

Daily Weather History Graph

Search for Another Location

Airport or City:

Trip Planner

Search our weather history database for the weather conditions in past years. The results will help you decide how hot, cold, wet, or windy it might be!

Date:

Astronomy

Jan. 20, 2014 Rise Set
Actual Time 7:04 AM MST 5:28 PM MST
Civil Twilight 6:38 AM MST 5:54 PM MST
Nautical Twilight 6:08 AM MST 6:24 PM MST
Astronomical Twilight 5:39 AM MST 6:53 PM MST
Moon 9:46 PM MST (1/20) 9:23 AM MST (1/20)
Length of Visible Light 11h 16m
Length of Day
10h 24m
Waning Gibbous, 82% of the Moon is Illuminated
Jan 20
Waning Gibbous
Jan 23
Last Quarter
Jan 30
New
Feb 6
First Quarter
Feb 14
Full

Hourly Weather History & Observations

Time (MST) Temp. Windchill Dew Point Humidity Pressure Visibility Wind Dir Wind Speed Gust Speed Precip Events Conditions
12:56 AM 35.8 °F - 8.8 °F 33% 30.11 in 11.0 mi ENE 2.3 mph - N/A   Clear
1:56 AM 36.0 °F 31.1 °F 9.1 °F 33% 30.12 in 10.0 mi NNE 5.8 mph - N/A   Clear
2:56 AM 33.6 °F - 8.6 °F 35% 30.11 in 10.0 mi NNE 2.3 mph - N/A   Clear
3:56 AM 31.1 °F 27.7 °F 9.1 °F 40% 30.12 in 9.0 mi North 3.5 mph - N/A   Clear
4:56 AM 30.6 °F 27.1 °F 9.3 °F 41% 30.12 in 10.0 mi North 3.5 mph - N/A   Partly Cloudy
5:56 AM 28.6 °F 24.8 °F 9.0 °F 44% 30.15 in 10.0 mi North 3.5 mph - N/A   Partly Cloudy
6:56 AM 26.1 °F 20.5 °F 7.2 °F 45% 30.17 in 11.0 mi North 4.6 mph - N/A   Partly Cloudy
7:56 AM 33.4 °F 29.1 °F 9.9 °F 37% 30.18 in 12.0 mi NNE 4.6 mph - N/A   Clear
8:56 AM 40.3 °F 38.2 °F 10.9 °F 30% 30.17 in 12.0 mi NNE 3.5 mph - N/A   Clear
9:56 AM 46.9 °F - 11.5 °F 24% 30.20 in 12.0 mi ESE 3.5 mph - N/A   Clear
10:56 AM 53.4 °F - 11.8 °F 19% 30.21 in 12.0 mi South 1.2 mph - N/A   Clear
11:56 AM 55.6 °F - 11.5 °F 17% 30.17 in 12.0 mi SE 3.5 mph - N/A   Clear
12:56 PM 61.7 °F - 11.5 °F 14% 30.12 in 12.0 mi South 2.3 mph - N/A   Clear
1:56 PM 63.5 °F - 11.5 °F 13% 30.11 in 12.0 mi SSE 4.6 mph - N/A   Clear
2:56 PM 67.1 °F - 10.6 °F 11% 30.11 in 12.0 mi North 4.6 mph - N/A   Clear
3:56 PM 69.1 °F - 10.2 °F 10% 30.12 in 12.0 mi WSW 2.3 mph - N/A   Clear
4:56 PM 66.0 °F - 10.4 °F 11% 30.16 in 12.0 mi NNE 4.6 mph - N/A   Clear
5:56 PM 56.3 °F - 8.4 °F 15% 30.21 in 12.0 mi NNE 3.5 mph - N/A   Clear
6:56 PM 52.7 °F - 8.1 °F 17% 30.25 in 12.0 mi ENE 3.5 mph - N/A   Clear
7:56 PM 46.0 °F 43.1 °F 8.6 °F 22% 30.29 in 11.0 mi NE 5.8 mph - N/A   Clear
8:56 PM 46.6 °F - 8.1 °F 21% 30.32 in 12.0 mi NNW 5.8 mph - N/A   Clear
9:56 PM 53.6 °F - 6.1 °F 15% 30.30 in 10.0 mi NNE 6.9 mph - N/A   Clear
10:56 PM 47.3 °F - 7.3 °F 20% 30.34 in 9.0 mi NW 2.3 mph - N/A   Clear
11:56 PM 47.8 °F - 8.4 °F 20% 30.35 in 8.0 mi SW 4.6 mph - N/A   Clear